カタログに戻る

NOAA 16 DEB

運用中SSO
NORAD 42426·DEBRIS·🇺🇸 United States

打ち上げ Sep 21, 2000 から Vandenberg Space Force Base

Loading…

次のパス (今後24時間)

TLE

経年Source: Space-Track

元期: Sep 10, 2026, 07:04 UTC

1 42426U 00055TW  26253.29483834  .00002116  00000-0  90270-3 0  9998
2 42426  98.5768 274.5664 0011025 252.0414 107.9564 14.26086650520393

AllMySatでNOAA 16 DEBをリアルタイム追跡

Download on the App Store